Time,TemperatureF,DewpointF,PressureIn,WindDirection,WindDirectionDegrees,WindSpeedMPH,WindSpeedGustMPH,Humidity,HourlyPrecipIn,Conditions,Clouds,dailyrainin,SoftwareType,DateUTC
2013-03-14 00:12:00,59.0,48.0,30.16,NNW,342,7.0,-999.0,66,-99.99,,,-99.99,,2013-03-14 04:12:00,
2013-03-14 00:22:00,59.0,48.0,30.16,NW,315,6.0,-999.0,66,-99.99,,,-99.99,,2013-03-14 04:22:00,
2013-03-14 00:32:00,58.0,47.0,30.16,NNW,327,5.0,-999.0,66,-99.99,,,-99.99,,2013-03-14 04:32:00,
2013-03-14 00:42:00,58.0,47.0,30.16,NNW,327,5.0,-999.0,66,-99.99,,,-99.99,,2013-03-14 04:42:00,
2013-03-14 00:52:00,58.0,47.0,30.16,North,5,5.0,-999.0,67,-99.99,,,-99.99,,2013-03-14 04:52:00,
2013-03-14 01:02:00,58.0,47.0,30.16,NW,323,6.0,-999.0,67,-99.99,,,-99.99,,2013-03-14 05:02:00,
2013-03-14 01:13:00,58.0,47.0,30.16,NW,323,6.0,-999.0,67,-99.99,,,-99.99,,2013-03-14 05:13:00,
2013-03-14 01:22:00,58.0,47.0,30.16,NNW,336,5.0,-999.0,67,-99.99,,,-99.99,,2013-03-14 05:22:00,
2013-03-14 01:33:00,57.0,46.0,30.16,NNW,328,5.0,-999.0,67,-99.99,,,-99.99,,2013-03-14 05:33:00,
2013-03-14 01:42:00,57.0,46.0,30.16,NNW,328,5.0,-999.0,67,-99.99,,,-99.99,,2013-03-14 05:42:00,
2013-03-14 01:52:00,57.0,47.0,30.16,NNW,346,4.0,-999.0,69,-99.99,,,-99.99,,2013-03-14 05:52:00,
2013-03-14 02:02:00,56.0,47.0,30.16,NNW,338,3.0,-999.0,71,-99.99,,,-99.99,,2013-03-14 06:02:00,
2013-03-14 02:12:00,56.0,47.0,30.16,NNW,338,3.0,-999.0,71,-99.99,,,-99.99,,2013-03-14 06:12:00,
2013-03-14 02:22:00,56.0,48.0,30.16,NNW,338,0.0,-999.0,75,-99.99,,,-99.99,,2013-03-14 06:22:00,
2013-03-14 02:33:00,56.0,48.0,30.16,NNW,340,0.0,-999.0,75,-99.99,,,-99.99,,2013-03-14 06:33:00,
2013-03-14 02:42:00,56.0,48.0,30.16,NNW,340,0.0,-999.0,75,-99.99,,,-99.99,,2013-03-14 06:42:00,
2013-03-14 02:52:00,55.0,47.0,30.16,NNW,340,1.0,-999.0,75,-99.99,,,-99.99,,2013-03-14 06:52:00,
2013-03-14 03:02:00,55.0,47.0,30.15,NNW,340,1.0,-999.0,75,-99.99,,,-99.99,,2013-03-14 07:02:00,
2013-03-14 03:12:00,55.0,47.0,30.15,NNW,340,1.0,-999.0,75,-99.99,,,-99.99,,2013-03-14 07:12:00,
2013-03-14 03:22:00,54.0,47.0,30.15,NNW,340,1.0,-999.0,77,-99.99,,,-99.99,,2013-03-14 07:22:00,
2013-03-14 03:32:00,54.0,47.0,30.15,NNW,340,2.0,-999.0,77,-99.99,,,-99.99,,2013-03-14 07:32:00,
2013-03-14 03:43:00,54.0,47.0,30.15,NNW,340,2.0,-999.0,77,-99.99,,,-99.99,,2013-03-14 07:43:00,
2013-03-14 03:52:00,54.0,47.0,30.14,NNW,340,2.0,-999.0,78,-99.99,,,-99.99,,2013-03-14 07:52:00,
2013-03-14 04:02:00,53.0,46.0,30.14,NNW,340,2.0,-999.0,78,-99.99,,,-99.99,,2013-03-14 08:02:00,
2013-03-14 04:12:00,53.0,46.0,30.14,NNW,340,2.0,-999.0,78,-99.99,,,-99.99,,2013-03-14 08:12:00,
2013-03-14 04:22:00,53.0,47.0,30.14,NNW,340,2.0,-999.0,79,-99.99,,,-99.99,,2013-03-14 08:22:00,
2013-03-14 04:32:00,53.0,47.0,30.14,NNW,340,3.0,-999.0,80,-99.99,,,-99.99,,2013-03-14 08:32:00,
2013-03-14 04:42:00,53.0,47.0,30.14,NNW,340,3.0,-999.0,80,-99.99,,,-99.99,,2013-03-14 08:42:00,
2013-03-14 04:52:00,53.0,47.0,30.14,NW,321,4.0,-999.0,80,-99.99,,,-99.99,,2013-03-14 08:52:00,
2013-03-14 05:02:00,53.0,47.0,30.14,North,355,5.0,-999.0,81,-99.99,,,-99.99,,2013-03-14 09:02:00,
2013-03-14 05:12:00,53.0,47.0,30.14,North,355,5.0,-999.0,81,-99.99,,,-99.99,,2013-03-14 09:12:00,
2013-03-14 05:22:00,54.0,48.0,30.14,NW,325,7.0,-999.0,81,-99.99,,,-99.99,,2013-03-14 09:22:00,
2013-03-14 05:32:00,53.0,47.0,30.15,NNW,335,6.0,-999.0,81,-99.99,,,-99.99,,2013-03-14 09:32:00,
2013-03-14 05:42:00,53.0,47.0,30.15,NNW,335,6.0,-999.0,81,-99.99,,,-99.99,,2013-03-14 09:42:00,
2013-03-14 05:52:00,53.0,48.0,30.15,NNW,343,6.0,-999.0,83,-99.99,,,-99.99,,2013-03-14 09:52:00,
2013-03-14 06:02:00,53.0,48.0,30.15,NNW,336,6.0,-999.0,83,-99.99,,,-99.99,,2013-03-14 10:02:00,
2013-03-14 06:12:00,53.0,48.0,30.15,NNW,336,6.0,-999.0,83,-99.99,,,-99.99,,2013-03-14 10:12:00,
2013-03-14 06:22:00,53.0,48.0,30.16,NNW,331,6.0,-999.0,82,-99.99,,,-99.99,,2013-03-14 10:22:00,
2013-03-14 06:32:00,52.0,46.0,30.16,NNW,336,6.0,-999.0,81,-99.99,,,-99.99,,2013-03-14 10:32:00,
2013-03-14 06:42:00,52.0,46.0,30.16,NNW,336,6.0,-999.0,81,-99.99,,,-99.99,,2013-03-14 10:42:00,
2013-03-14 06:52:00,52.0,45.0,30.17,NNW,348,5.0,-999.0,77,-99.99,,,-99.99,,2013-03-14 10:52:00,
2013-03-14 07:02:00,52.0,44.0,30.18,WNW,295,5.0,-999.0,74,-99.99,,,-99.99,,2013-03-14 11:02:00,
2013-03-14 07:12:00,52.0,44.0,30.18,WNW,295,5.0,-999.0,74,-99.99,,,-99.99,,2013-03-14 11:12:00,
2013-03-14 07:22:00,52.0,43.0,30.18,NW,319,5.0,-999.0,72,-99.99,,,-99.99,,2013-03-14 11:22:00,
2013-03-14 07:33:00,52.0,42.0,30.19,WNW,298,5.0,-999.0,69,-99.99,,,-99.99,,2013-03-14 11:33:00,
2013-03-14 07:42:00,52.0,42.0,30.19,WNW,298,5.0,-999.0,69,-99.99,,,-99.99,,2013-03-14 11:42:00,
2013-03-14 07:52:00,52.0,42.0,30.19,WNW,298,5.0,-999.0,69,-99.99,,,-99.99,,2013-03-14 11:52:00,
2013-03-14 08:02:00,52.0,42.0,30.20,WNW,296,5.0,-999.0,68,-99.99,,,-99.99,,2013-03-14 12:02:00,
2013-03-14 08:12:00,52.0,42.0,30.20,WNW,296,5.0,-999.0,68,-99.99,,,-99.99,,2013-03-14 12:12:00,
2013-03-14 08:22:00,52.0,41.0,30.21,NW,319,4.0,-999.0,66,-99.99,,,-99.99,,2013-03-14 12:22:00,
2013-03-14 08:33:00,52.0,41.0,30.21,NE,34,4.0,-999.0,65,-99.99,,,-99.99,,2013-03-14 12:33:00,
2013-03-14 08:42:00,52.0,41.0,30.21,NE,34,4.0,-999.0,65,-99.99,,,-99.99,,2013-03-14 12:42:00,
2013-03-14 08:52:00,53.0,40.0,30.22,NNW,335,3.0,-999.0,61,-99.99,,,-99.99,,2013-03-14 12:52:00,
2013-03-14 09:02:00,54.0,40.0,30.22,NW,305,5.0,-999.0,60,-99.99,,,-99.99,,2013-03-14 13:02:00,
2013-03-14 09:13:00,54.0,40.0,30.22,NW,305,5.0,-999.0,60,-99.99,,,-99.99,,2013-03-14 13:13:00,
2013-03-14 09:22:00,54.0,39.0,30.23,NNE,30,6.0,-999.0,56,-99.99,,,-99.99,,2013-03-14 13:22:00,
2013-03-14 09:32:00,55.0,40.0,30.23,NE,44,8.0,-999.0,57,-99.99,,,-99.99,,2013-03-14 13:32:00,
2013-03-14 09:43:00,55.0,40.0,30.23,NE,44,8.0,-999.0,57,-99.99,,,-99.99,,2013-03-14 13:43:00,
2013-03-14 09:52:00,54.0,38.0,30.23,NE,34,10.0,-999.0,54,-99.99,,,-99.99,,2013-03-14 13:52:00,
2013-03-14 10:02:00,55.0,40.0,30.24,NE,49,13.0,-999.0,56,-99.99,,,-99.99,,2013-03-14 14:02:00,
2013-03-14 10:12:00,55.0,40.0,30.24,NE,49,13.0,-999.0,56,-99.99,,,-99.99,,2013-03-14 14:12:00,
2013-03-14 10:22:00,56.0,38.0,30.24,NE,36,13.0,-999.0,51,-99.99,,,-99.99,,2013-03-14 14:22:00,
2013-03-14 10:32:00,56.0,37.0,30.24,NNW,338,10.0,-999.0,49,-99.99,,,-99.99,,2013-03-14 14:32:00,
2013-03-14 10:42:00,56.0,37.0,30.24,NNW,338,10.0,-999.0,49,-99.99,,,-99.99,,2013-03-14 14:42:00,
2013-03-14 10:52:00,57.0,38.0,30.24,NE,54,13.0,-999.0,49,-99.99,,,-99.99,,2013-03-14 14:52:00,
2013-03-14 11:02:00,58.0,37.0,30.23,ENE,59,11.0,-999.0,46,-99.99,,,-99.99,,2013-03-14 15:02:00,
2013-03-14 11:12:00,58.0,37.0,30.23,ENE,59,11.0,-999.0,46,-99.99,,,-99.99,,2013-03-14 15:12:00,
2013-03-14 11:22:00,58.0,37.0,30.23,ENE,59,11.0,-999.0,46,-99.99,,,-99.99,,2013-03-14 15:22:00,
2013-03-14 11:33:00,58.0,37.0,30.23,ENE,59,11.0,-999.0,46,-99.99,,,-99.99,,2013-03-14 15:33:00,
2013-03-14 11:52:00,59.0,36.0,30.23,NE,42,10.0,-999.0,42,-99.99,,,-99.99,,2013-03-14 15:52:00,
2013-03-14 12:03:00,60.0,39.0,30.23,NE,47,14.0,-999.0,45,-99.99,,,-99.99,,2013-03-14 16:03:00,
2013-03-14 12:13:00,60.0,39.0,30.23,NE,47,14.0,-999.0,45,-99.99,,,-99.99,,2013-03-14 16:13:00,
2013-03-14 12:23:00,60.0,37.0,30.23,ENE,58,14.0,-999.0,43,-99.99,,,-99.99,,2013-03-14 16:23:00,
2013-03-14 12:32:00,61.0,38.0,30.24,NE,51,11.0,-999.0,43,-99.99,,,-99.99,,2013-03-14 16:32:00,
2013-03-14 12:42:00,61.0,38.0,30.24,NE,51,11.0,-999.0,43,-99.99,,,-99.99,,2013-03-14 16:42:00,
2013-03-14 12:52:00,62.0,40.0,30.23,NE,49,11.0,-999.0,44,-99.99,,,-99.99,,2013-03-14 16:52:00,
2013-03-14 13:02:00,63.0,37.0,30.22,NE,41,10.0,-999.0,38,-99.99,,,-99.99,,2013-03-14 17:02:00,
2013-03-14 13:13:00,63.0,37.0,30.22,NE,41,10.0,-999.0,38,-99.99,,,-99.99,,2013-03-14 17:13:00,
2013-03-14 13:23:00,63.0,36.0,30.22,NE,50,9.0,-999.0,37,-99.99,,,-99.99,,2013-03-14 17:23:00,
2013-03-14 13:33:00,65.0,39.0,30.21,NE,42,7.0,-999.0,38,-99.99,,,-99.99,,2013-03-14 17:33:00,
2013-03-14 13:42:00,65.0,39.0,30.21,NE,42,7.0,-999.0,38,-99.99,,,-99.99,,2013-03-14 17:42:00,
2013-03-14 13:52:00,65.0,37.0,30.21,ENE,59,8.0,-999.0,36,-99.99,,,-99.99,,2013-03-14 17:52:00,
2013-03-14 14:03:00,65.0,37.0,30.20,ENE,73,8.0,-999.0,35,-99.99,,,-99.99,,2013-03-14 18:03:00,
2013-03-14 14:13:00,65.0,37.0,30.20,ENE,73,8.0,-999.0,35,-99.99,,,-99.99,,2013-03-14 18:13:00,
2013-03-14 14:23:00,66.0,40.0,30.19,ENE,71,6.0,-999.0,38,-99.99,,,-99.99,,2013-03-14 18:23:00,
2013-03-14 14:33:00,67.0,38.0,30.18,ENE,77,5.0,-999.0,34,-99.99,,,-99.99,,2013-03-14 18:33:00,
2013-03-14 14:43:00,67.0,38.0,30.18,ENE,77,5.0,-999.0,34,-99.99,,,-99.99,,2013-03-14 18:43:00,
2013-03-14 14:52:00,67.0,41.0,30.17,East,89,6.0,-999.0,39,-99.99,,,-99.99,,2013-03-14 18:52:00,
2013-03-14 15:03:00,68.0,37.0,30.17,ENE,69,4.0,-999.0,32,-99.99,,,-99.99,,2013-03-14 19:03:00,
2013-03-14 15:12:00,68.0,37.0,30.17,ENE,69,4.0,-999.0,32,-99.99,,,-99.99,,2013-03-14 19:12:00,
2013-03-14 15:23:00,70.0,33.0,30.16,NNW,348,3.0,-999.0,25,-99.99,,,-99.99,,2013-03-14 19:23:00,
2013-03-14 15:32:00,70.0,38.0,30.16,NE,46,7.0,-999.0,31,-99.99,,,-99.99,,2013-03-14 19:32:00,
2013-03-14 15:42:00,70.0,38.0,30.16,NE,46,7.0,-999.0,31,-99.99,,,-99.99,,2013-03-14 19:42:00,
2013-03-14 15:52:00,70.0,30.0,30.15,NE,55,7.0,-999.0,23,-99.99,,,-99.99,,2013-03-14 19:52:00,
2013-03-14 16:02:00,70.0,30.0,30.15,NE,55,7.0,-999.0,23,-99.99,,,-99.99,,2013-03-14 20:02:00,
2013-03-14 16:12:00,70.0,30.0,30.15,NE,55,7.0,-999.0,23,-99.99,,,-99.99,,2013-03-14 20:12:00,
2013-03-14 16:22:00,71.0,31.0,30.14,NNW,338,6.0,-999.0,23,-99.99,,,-99.99,,2013-03-14 20:22:00,
2013-03-14 16:32:00,71.0,31.0,30.13,NE,51,7.0,-999.0,23,-99.99,,,-99.99,,2013-03-14 20:32:00,
2013-03-14 16:42:00,71.0,31.0,30.13,NE,51,7.0,-999.0,23,-99.99,,,-99.99,,2013-03-14 20:42:00,
2013-03-14 16:52:00,72.0,31.0,30.13,NE,48,5.0,-999.0,22,-99.99,,,-99.99,,2013-03-14 20:52:00,
2013-03-14 17:03:00,72.0,31.0,30.13,NE,48,5.0,-999.0,22,-99.99,,,-99.99,,2013-03-14 21:03:00,
2013-03-14 17:13:00,72.0,31.0,30.13,NE,48,5.0,-999.0,22,-99.99,,,-99.99,,2013-03-14 21:13:00,
2013-03-14 17:22:00,72.0,37.0,30.13,WNW,292,8.0,-999.0,28,-99.99,,,-99.99,,2013-03-14 21:22:00,
2013-03-14 17:33:00,71.0,40.0,30.13,West,275,8.0,-999.0,33,-99.99,,,-99.99,,2013-03-14 21:33:00,
2013-03-14 17:43:00,71.0,40.0,30.13,West,275,8.0,-999.0,33,-99.99,,,-99.99,,2013-03-14 21:43:00,
2013-03-14 17:53:00,69.0,42.0,30.13,WNW,287,9.0,-999.0,37,-99.99,,,-99.99,,2013-03-14 21:53:00,
2013-03-14 18:04:00,68.0,44.0,30.13,WNW,299,9.0,-999.0,42,-99.99,,,-99.99,,2013-03-14 22:04:00,
2013-03-14 18:13:00,68.0,44.0,30.13,WNW,299,9.0,-999.0,42,-99.99,,,-99.99,,2013-03-14 22:13:00,
2013-03-14 18:23:00,67.0,45.0,30.13,NW,305,8.0,-999.0,45,-99.99,,,-99.99,,2013-03-14 22:23:00,
2013-03-14 18:33:00,66.0,45.0,30.13,West,273,8.0,-999.0,46,-99.99,,,-99.99,,2013-03-14 22:33:00,
2013-03-14 18:42:00,66.0,45.0,30.13,West,273,8.0,-999.0,46,-99.99,,,-99.99,,2013-03-14 22:42:00,
2013-03-14 18:52:00,66.0,45.0,30.14,WNW,294,8.0,-999.0,47,-99.99,,,-99.99,,2013-03-14 22:52:00,
2013-03-14 19:03:00,66.0,47.0,30.14,WNW,296,7.0,-999.0,50,-99.99,,,-99.99,,2013-03-14 23:03:00,
2013-03-14 19:12:00,66.0,47.0,30.14,WNW,296,7.0,-999.0,50,-99.99,,,-99.99,,2013-03-14 23:12:00,
2013-03-14 19:23:00,65.0,47.0,30.14,WNW,291,6.0,-999.0,52,-99.99,,,-99.99,,2013-03-14 23:23:00,
2013-03-14 19:33:00,65.0,47.0,30.15,WNW,298,6.0,-999.0,53,-99.99,,,-99.99,,2013-03-14 23:33:00,
2013-03-14 19:43:00,65.0,47.0,30.15,WNW,298,6.0,-999.0,53,-99.99,,,-99.99,,2013-03-14 23:43:00,
2013-03-14 19:53:00,64.0,48.0,30.15,WNW,296,5.0,-999.0,57,-99.99,,,-99.99,,2013-03-14 23:53:00,
2013-03-14 20:02:00,62.0,48.0,30.15,WNW,302,6.0,-999.0,61,-99.99,,,-99.99,,2013-03-15 00:02:00,
2013-03-14 20:12:00,61.0,49.0,30.15,WNW,288,5.0,-999.0,65,-99.99,,,-99.99,,2013-03-15 00:12:00,
2013-03-14 20:23:00,61.0,49.0,30.15,WNW,288,5.0,-999.0,65,-99.99,,,-99.99,,2013-03-15 00:23:00,
2013-03-14 20:32:00,60.0,49.0,30.16,NW,304,6.0,-999.0,68,-99.99,,,-99.99,,2013-03-15 00:32:00,
2013-03-14 20:42:00,60.0,49.0,30.16,NW,304,6.0,-999.0,68,-99.99,,,-99.99,,2013-03-15 00:42:00,
2013-03-14 20:52:00,60.0,50.0,30.16,NW,307,5.0,-999.0,70,-99.99,,,-99.99,,2013-03-15 00:52:00,
2013-03-14 21:02:00,59.0,50.0,30.16,WNW,301,4.0,-999.0,72,-99.99,,,-99.99,,2013-03-15 01:02:00,
2013-03-14 21:12:00,59.0,50.0,30.16,WNW,301,4.0,-999.0,72,-99.99,,,-99.99,,2013-03-15 01:12:00,
2013-03-14 21:22:00,59.0,50.0,30.17,NW,306,4.0,-999.0,73,-99.99,,,-99.99,,2013-03-15 01:22:00,
2013-03-14 21:32:00,58.0,49.0,30.17,NW,304,4.0,-999.0,73,-99.99,,,-99.99,,2013-03-15 01:32:00,
2013-03-14 21:42:00,58.0,49.0,30.17,NW,304,4.0,-999.0,73,-99.99,,,-99.99,,2013-03-15 01:42:00,
2013-03-14 21:52:00,58.0,50.0,30.18,WNW,302,4.0,-999.0,74,-99.99,,,-99.99,,2013-03-15 01:52:00,
2013-03-14 22:03:00,57.0,49.0,30.18,NW,308,4.0,-999.0,74,-99.99,,,-99.99,,2013-03-15 02:03:00,
2013-03-14 22:12:00,57.0,49.0,30.18,NW,308,4.0,-999.0,74,-99.99,,,-99.99,,2013-03-15 02:12:00,
2013-03-14 22:22:00,57.0,49.0,30.18,NW,317,3.0,-999.0,74,-99.99,,,-99.99,,2013-03-15 02:22:00,
2013-03-14 22:32:00,57.0,49.0,30.19,NW,319,3.0,-999.0,74,-99.99,,,-99.99,,2013-03-15 02:32:00,
2013-03-14 22:42:00,57.0,49.0,30.19,NW,319,3.0,-999.0,74,-99.99,,,-99.99,,2013-03-15 02:42:00,
2013-03-14 22:52:00,56.0,48.0,30.19,NW,325,3.0,-999.0,74,-99.99,,,-99.99,,2013-03-15 02:52:00,
2013-03-14 23:02:00,56.0,48.0,30.21,NNW,344,3.0,-999.0,74,-99.99,,,-99.99,,2013-03-15 03:02:00,
2013-03-14 23:13:00,56.0,48.0,30.21,NNW,344,3.0,-999.0,74,-99.99,,,-99.99,,2013-03-15 03:13:00,
2013-03-14 23:22:00,56.0,47.0,30.22,NE,36,1.0,-999.0,73,-99.99,,,-99.99,,2013-03-15 03:22:00,
2013-03-14 23:33:00,56.0,46.0,30.22,NNE,20,1.0,-999.0,70,-99.99,,,-99.99,,2013-03-15 03:33:00,
2013-03-14 23:43:00,56.0,46.0,30.22,NNE,20,1.0,-999.0,70,-99.99,,,-99.99,,2013-03-15 03:43:00,
2013-03-14 23:52:00,56.0,46.0,30.22,NE,49,2.0,-999.0,68,-99.99,,,-99.99,,2013-03-15 03:52:00,